| time (UTC) | temp F | wind direction | speed knots | gust knots | rain 1hr in | rain 24hr in | rain mn in | humidity % | barometer mb |
| 20260505140609 | 43 | 285 | 0.0 | 0.0 | 0.00 | 0.00 | 0.00 | 79 | |
| 20260505140109 | 42 | 285 | 0.0 | 0.0 | 0.00 | 0.00 | 0.00 | 80 | |
| 20260505130109 | 38 | 61 | 0.0 | 0.0 | 0.00 | 0.00 | 0.00 | 87 | |
| 20260505124609 | 37 | 61 | 0.0 | 0.0 | 0.00 | 0.00 | 0.00 | 88 | |
| 20260505124109 | 37 | 61 | 0.0 | 0.0 | 0.00 | 0.00 | 0.00 | 89 | |
| 20260505123609 | 37 | 61 | 0.0 | 0.0 | 0.00 | 0.00 | 0.00 | 88 | |
| 20260505123110 | 37 | 61 | 0.0 | 0.0 | 0.00 | 0.00 | 0.00 | 88 | |
| 20260505122610 | 37 | 61 | 0.0 | 0.9 | 0.00 | 0.00 | 0.00 | 88 | |
| 20260505122110 | 37 | 229 | 0.9 | 0.9 | 0.00 | 0.00 | 0.00 | 89 | |
| 20260505121610 | 36 | 229 | 0.0 | 0.0 | 0.00 | 0.00 | 0.00 | 89 | |
| 20260505121110 | 36 | 229 | 0.0 | 0.0 | 0.00 | 0.00 | 0.00 | 89 | |
| 20260505120610 | 36 | 229 | 0.0 | 0.0 | 0.00 | 0.00 | 0.00 | 88 | |
| 20260505120110 | 36 | 229 | 0.0 | 2.6 | 0.00 | 0.00 | 0.00 | 88 | |
| 20260505115610 | 36 | 239 | 2.6 | 3.5 | 0.00 | 0.00 | 0.00 | 88 | |
| 20260505115110 | 37 | 254 | 0.0 | 1.7 | 0.00 | 0.00 | 0.00 | 89 | |
| 20260505114610 | 37 | 226 | 0.0 | 0.0 | 0.00 | 0.00 | 0.00 | 88 | |
| 20260505114110 | 37 | 226 | 0.0 | 0.0 | 0.00 | 0.00 | 0.00 | 88 | |
| 20260505113610 | 37 | 226 | 0.0 | 0.0 | 0.00 | 0.00 | 0.00 | 86 | |
| 20260505113110 | 38 | 226 | 0.0 | 0.0 | 0.00 | 0.00 | 0.00 | 86 | |
| 20260505112610 | 38 | 226 | 0.0 | 0.0 | 0.00 | 0.00 | 0.00 | 86 | |
| 20260505112110 | 38 | 226 | 0.0 | 0.0 | 0.00 | 0.00 | 0.00 | 86 | |
| 20260505111610 | 38 | 226 | 0.0 | 2.6 | 0.00 | 0.00 | 0.00 | 86 | |
| 20260505111110 | 38 | 291 | 0.0 | 0.0 | 0.00 | 0.00 | 0.00 | 85 | |
| 20260505110610 | 38 | 291 | 0.0 | 0.0 | 0.00 | 0.00 | 0.00 | 85 | |
| 20260505110110 | 38 | 291 | 0.0 | 0.0 | 0.00 | 0.00 | 0.00 | 85 | |
| 20260505102110 | 40 | 2 | 0.0 | 4.3 | 0.00 | 0.00 | 0.00 | 84 | |
| 20260505101610 | 40 | 295 | 3.5 | 5.2 | 0.00 | 0.00 | 0.00 | 85 | |
| 20260505101110 | 40 | 67 | 3.5 | 5.2 | 0.00 | 0.00 | 0.00 | 86 | |
| 20260505100610 | 40 | 270 | 4.3 | 4.3 | 0.00 | 0.00 | 0.00 | 86 | |
| 20260505100110 | 39 | 237 | 0.0 | 0.0 | 0.00 | 0.00 | 0.00 | 88 | |
| 20260505095610 | 39 | 237 | 0.0 | 0.0 | 0.00 | 0.00 | 0.00 | 86 | |
| 20260505095110 | 39 | 237 | 0.0 | 0.0 | 0.00 | 0.00 | 0.00 | 86 | |
| 20260505094610 | 40 | 237 | 0.0 | 0.0 | 0.00 | 0.00 | 0.00 | 83 | |
| 20260505094110 | 40 | 237 | 0.0 | 0.0 | 0.00 | 0.00 | 0.00 | 82 | |
| 20260505093610 | 40 | 237 | 0.0 | 0.0 | 0.00 | 0.00 | 0.00 | 82 | |
| 20260505093110 | 41 | 237 | 0.0 | 0.0 | 0.00 | 0.00 | 0.00 | 82 | |
| 20260505092610 | 41 | 237 | 0.0 | 0.0 | 0.00 | 0.00 | 0.00 | 81 | |
| 20260505092110 | 42 | 237 | 0.0 | 0.0 | 0.00 | 0.00 | 0.00 | 81 | |
| 20260505091610 | 42 | 237 | 0.0 | 0.0 | 0.00 | 0.00 | 0.00 | 82 | |
| 20260505091110 | 42 | 237 | 0.0 | 0.0 | 0.00 | 0.00 | 0.00 | 82 | |
| 20260505090610 | 42 | 237 | 0.0 | 0.0 | 0.00 | 0.00 | 0.00 | 80 | |
| 20260505090110 | 42 | 237 | 0.0 | 0.0 | 0.00 | 0.00 | 0.00 | 80 | |
| 20260505085610 | 42 | 237 | 0.0 | 0.0 | 0.00 | 0.00 | 0.00 | 79 | |
| 20260505085110 | 42 | 237 | 0.0 | 0.0 | 0.00 | 0.00 | 0.00 | 79 | |
| 20260505084610 | 43 | 237 | 0.0 | 0.0 | 0.00 | 0.00 | 0.00 | 78 | |
| 20260505084110 | 43 | 237 | 0.0 | 0.0 | 0.00 | 0.00 | 0.00 | 78 | |
| 20260505083610 | 43 | 237 | 0.0 | 0.0 | 0.00 | 0.00 | 0.00 | 77 | |
| 20260505083110 | 44 | 237 | 0.0 | 0.0 | 0.00 | 0.00 | 0.00 | 76 | |
| 20260505082610 | 44 | 237 | 0.0 | 1.7 | 0.00 | 0.00 | 0.00 | 74 | |
| 20260505082110 | 45 | 8 | 0.0 | 0.0 | 0.00 | 0.00 | 0.00 | 73 | |
| 20260505081610 | 45 | 8 | 0.0 | 0.0 | 0.00 | 0.00 | 0.00 | 72 | |
| 20260505081110 | 45 | 8 | 0.0 | 0.0 | 0.00 | 0.00 | 0.00 | 72 | |
| 20260505080610 | 45 | 8 | 0.0 | 0.0 | 0.00 | 0.00 | 0.00 | 71 | |
| 20260505080110 | 45 | 8 | 0.0 | 0.0 | 0.00 | 0.00 | 0.00 | 71 | |
| 20260505075610 | 45 | 8 | 0.0 | 2.6 | 0.00 | 0.00 | 0.00 | 71 | |
| 20260505075110 | 46 | 315 | 0.0 | 0.0 | 0.00 | 0.00 | 0.00 | 72 | |
| 20260505074610 | 46 | 315 | 0.0 | 0.0 | 0.00 | 0.00 | 0.00 | 72 | |
| 20260505074110 | 46 | 315 | 0.0 | 4.3 | 0.00 | 0.00 | 0.00 | 71 | |
| 20260505073610 | 46 | 340 | 2.6 | 4.3 | 0.00 | 0.00 | 0.00 | 71 | |
| 20260505073110 | 46 | 352 | 0.0 | 0.0 | 0.00 | 0.00 | 0.00 | 71 | |
| 20260505072610 | 46 | 352 | 0.0 | 4.3 | 0.00 | 0.00 | 0.00 | 71 | |
| 20260505072110 | 47 | 348 | 0.0 | 2.6 | 0.00 | 0.00 | 0.00 | 70 | |
| 20260505071610 | 47 | 341 | 1.7 | 6.1 | 0.00 | 0.00 | 0.00 | 70 | |
| 20260505071110 | 47 | 291 | 2.6 | 7.8 | 0.00 | 0.00 | 0.00 | 70 | |
| 20260505070610 | 47 | 326 | 0.9 | 7.8 | 0.00 | 0.00 | 0.00 | 70 | |
| 20260505070110 | 47 | 315 | 1.7 | 7.8 | 0.00 | 0.00 | 0.00 | 70 | |
| 20260505065610 | 47 | 324 | 1.7 | 5.2 | 0.00 | 0.00 | 0.00 | 70 | |
| 20260505065110 | 47 | 326 | 2.6 | 6.1 | 0.00 | 0.00 | 0.00 | 70 | |
| 20260505064610 | 47 | 316 | 4.3 | 6.1 | 0.00 | 0.00 | 0.00 | 71 | |
| 20260505064110 | 47 | 286 | 4.3 | 8.7 | 0.00 | 0.00 | 0.00 | 71 | |
| 20260505063610 | 47 | 347 | 5.2 | 12.2 | 0.00 | 0.00 | 0.00 | 70 | |
| 20260505063110 | 47 | 322 | 3.5 | 7.8 | 0.00 | 0.00 | 0.00 | 70 | |
| 20260505062610 | 47 | 336 | 5.2 | 12.2 | 0.00 | 0.00 | 0.00 | 71 | |
| 20260505062110 | 47 | 319 | 12.2 | 12.2 | 0.00 | 0.00 | 0.00 | 71 | |
| 20260505061610 | 47 | 316 | 1.7 | 9.6 | 0.00 | 0.00 | 0.00 | 71 | |
| 20260505061110 | 47 | 319 | 3.5 | 7.0 | 0.00 | 0.00 | 0.00 | 71 | |
| 20260505060610 | 48 | 302 | 2.6 | 7.0 | 0.00 | 0.00 | 0.00 | 70 | |
| 20260505060110 | 48 | 338 | 3.5 | 6.1 | 0.00 | 0.00 | 0.00 | 70 | |
| 20260505055610 | 48 | 315 | 2.6 | 7.0 | 0.00 | 0.00 | 0.00 | 70 | |
| 20260505055110 | 48 | 338 | 3.5 | 11.3 | 0.00 | 0.00 | 0.00 | 69 | |
| 20260505054610 | 48 | 333 | 9.6 | 9.6 | 0.00 | 0.00 | 0.00 | 68 | |
| 20260505054110 | 48 | 315 | 7.8 | 10.4 | 0.00 | 0.00 | 0.00 | 66 | |
| 20260505053610 | 48 | 334 | 9.6 | 10.4 | 0.00 | 0.00 | 0.00 | 65 | |
| 20260505053110 | 49 | 333 | 5.2 | 7.8 | 0.00 | 0.00 | 0.00 | 64 | |
| 20260505052610 | 50 | 337 | 1.7 | 4.3 | 0.00 | 0.00 | 0.00 | 57 | |
| 20260505052110 | 50 | 299 | 2.6 | 6.1 | 0.00 | 0.00 | 0.00 | 53 | |
| 20260505051610 | 50 | 291 | 5.2 | 5.2 | 0.00 | 0.00 | 0.00 | 52 | |
| 20260505051110 | 50 | 333 | 1.7 | 5.2 | 0.00 | 0.00 | 0.00 | 53 | |
| 20260505050610 | 50 | 336 | 1.7 | 6.1 | 0.00 | 0.00 | 0.00 | 52 | |
| 20260505050110 | 50 | 298 | 4.3 | 6.1 | 0.00 | 0.00 | 0.00 | 52 | |
| 20260505041610 | 49 | 316 | 2.6 | 11.3 | 0.00 | 0.00 | 0.00 | 61 | |
| 20260505041110 | 49 | 338 | 7.0 | 8.7 | 0.00 | 0.00 | 0.00 | 61 | |
| 20260505040610 | 49 | 285 | 2.6 | 7.0 | 0.00 | 0.00 | 0.00 | 64 | |
| 20260505040110 | 49 | 333 | 3.5 | 9.6 | 0.00 | 0.00 | 0.00 | 64 | |
| 20260505035610 | 50 | 348 | 1.7 | 10.4 | 0.00 | 0.00 | 0.00 | 62 | |
| 20260505035110 | 50 | 326 | 2.6 | 9.6 | 0.00 | 0.00 | 0.00 | 62 | |
| 20260505034610 | 49 | 330 | 4.3 | 11.3 | 0.00 | 0.00 | 0.00 | 62 | |
| 20260505034110 | 49 | 11 | 3.5 | 8.7 | 0.00 | 0.00 | 0.00 | 64 | |
| 20260505033610 | 50 | 0 | 2.6 | 7.8 | 0.00 | 0.00 | 0.00 | 65 | |
| 20260505033110 | 50 | 327 | 3.5 | 7.0 | 0.00 | 0.00 | 0.00 | 64 | |
| 20260505032610 | 49 | 316 | 2.6 | 10.4 | 0.00 | 0.00 | 0.00 | 62 | |
| 20260505032110 | 49 | 340 | 5.2 | 8.7 | 0.00 | 0.00 | 0.00 | 64 | |
| 20260505031610 | 49 | 347 | 4.3 | 9.6 | 0.00 | 0.00 | 0.00 | 65 | |
| 20260505031110 | 50 | 312 | 0.0 | 7.8 | 0.00 | 0.00 | 0.00 | 67 | |
| 20260505030610 | 50 | 331 | 4.3 | 8.7 | 0.00 | 0.00 | 0.00 | 66 | |
| 20260505030110 | 50 | 295 | 0.9 | 7.0 | 0.00 | 0.00 | 0.00 | 62 | |
| 20260505025610 | 50 | 298 | 5.2 | 8.7 | 0.00 | 0.00 | 0.00 | 62 | |
| 20260505025110 | 50 | 305 | 2.6 | 12.2 | 0.00 | 0.00 | 0.00 | 67 | |
| 20260505024610 | 50 | 322 | 7.0 | 13.9 | 0.00 | 0.00 | 0.00 | 62 | |
| 20260505024110 | 50 | 291 | 4.3 | 12.2 | 0.00 | 0.00 | 0.00 | 61 | |
| 20260505023610 | 50 | 344 | 4.3 | 13.0 | 0.00 | 0.00 | 0.00 | 62 | |
| 20260505023110 | 50 | 340 | 7.8 | 9.6 | 0.00 | 0.00 | 0.00 | 64 | |
| 20260505022610 | 50 | 343 | 7.0 | 8.7 | 0.00 | 0.00 | 0.00 | 63 | |
| 20260505022110 | 51 | 1 | 4.3 | 7.8 | 0.00 | 0.00 | 0.00 | 61 | |
| 20260505021610 | 51 | 337 | 2.6 | 5.2 | 0.00 | 0.00 | 0.00 | 59 | |
| 20260505021110 | 51 | 309 | 0.0 | 5.2 | 0.00 | 0.00 | 0.00 | 58 | |
| 20260505020610 | 51 | 331 | 3.5 | 5.2 | 0.00 | 0.00 | 0.00 | 57 | |
| 20260505020110 | 51 | 315 | 0.0 | 6.1 | 0.00 | 0.00 | 0.00 | 59 | |
| 20260505015610 | 51 | 1 | 4.3 | 7.8 | 0.00 | 0.00 | 0.00 | 58 | |
| 20260505015111 | 52 | 344 | 1.7 | 6.1 | 0.00 | 0.00 | 0.00 | 57 | |
| 20260505014611 | 52 | 358 | 2.6 | 6.1 | 0.00 | 0.00 | 0.00 | 56 | |
| 20260505014111 | 52 | 354 | 0.0 | 5.2 | 0.00 | 0.00 | 0.00 | 55 | |
| 20260505013611 | 52 | 289 | 5.2 | 7.8 | 0.00 | 0.00 | 0.00 | 54 | |
| 20260505013111 | 52 | 322 | 6.1 | 9.6 | 0.00 | 0.00 | 0.00 | 54 | |
| 20260505012611 | 53 | 337 | 3.5 | 7.0 | 0.00 | 0.00 | 0.00 | 50 | |
| 20260505012111 | 53 | 299 | 7.0 | 10.4 | 0.00 | 0.00 | 0.00 | 49 | |
| 20260505011611 | 53 | 257 | 9.6 | 13.9 | 0.00 | 0.00 | 0.00 | 47 | |
| 20260505011111 | 53 | 293 | 10.4 | 13.9 | 0.00 | 0.00 | 0.00 | 48 | |
| 20260505010611 | 53 | 292 | 5.2 | 11.3 | 0.00 | 0.00 | 0.00 | 47 | |
| 20260505010111 | 53 | 316 | 6.1 | 19.1 | 0.00 | 0.00 | 0.00 | 48 | |
| 20260505005611 | 53 | 285 | 11.3 | 13.0 | 0.00 | 0.00 | 0.00 | 46 | |
| 20260505005111 | 53 | 298 | 7.0 | 10.4 | 0.00 | 0.00 | 0.00 | 46 | |
| 20260505004611 | 53 | 307 | 4.3 | 12.2 | 0.00 | 0.00 | 0.00 | 50 | |
| 20260505004111 | 53 | 291 | 6.1 | 7.0 | 0.00 | 0.00 | 0.00 | 50 | |
| 20260505003611 | 53 | 296 | 7.0 | 9.6 | 0.00 | 0.00 | 0.00 | 49 | |
| 20260505003111 | 53 | 289 | 4.3 | 7.0 | 0.00 | 0.00 | 0.00 | 48 | |
| 20260505002611 | 53 | 7 | 3.5 | 12.2 | 0.00 | 0.00 | 0.00 | 48 | |
| 20260505002111 | 53 | 262 | 7.0 | 15.6 | 0.00 | 0.00 | 0.00 | 48 | |
| 20260505001611 | 53 | 244 | 9.6 | 14.8 | 0.00 | 0.00 | 0.00 | 49 | |
| 20260505001111 | 53 | 282 | 8.7 | 13.0 | 0.00 | 0.00 | 0.00 | 49 | |
| 20260505000611 | 53 | 303 | 3.5 | 13.9 | 0.00 | 0.00 | 0.00 | 50 | |
| 20260505000111 | 53 | 307 | 4.3 | 14.8 | 0.00 | 0.00 | 0.00 | 50 | |
| 20260504235611 | 53 | 323 | 2.6 | 10.4 | 0.00 | 0.00 | 0.00 | 52 | |
| 20260504235111 | 53 | 268 | 9.6 | 10.4 | 0.00 | 0.00 | 0.00 | 51 | |
| 20260504234611 | 52 | 320 | 5.2 | 11.3 | 0.00 | 0.00 | 0.00 | 51 | |
| 20260504234111 | 52 | 285 | 10.4 | 11.3 | 0.00 | 0.00 | 0.00 | 56 | |
| 20260504233611 | 51 | 285 | 7.8 | 14.8 | 0.00 | 0.00 | 0.00 | 61 | |
| 20260504233111 | 50 | 258 | 13.0 | 17.4 | 0.00 | 0.00 | 0.00 | 63 | |
| 20260504232611 | 50 | 274 | 7.8 | 17.4 | 0.00 | 0.00 | 0.00 | 67 | |
| 20260504232111 | 49 | 286 | 9.6 | 17.4 | 0.00 | 0.00 | 0.00 | 69 | |
| 20260504231611 | 49 | 285 | 17.4 | 17.4 | 0.00 | 0.00 | 0.00 | 69 | |
| 20260504231111 | 49 | 274 | 10.4 | 18.2 | 0.00 | 0.00 | 0.00 | 68 | |
| 20260504230611 | 49 | 289 | 11.3 | 17.4 | 0.00 | 0.00 | 0.00 | 69 | |
| 20260504230111 | 50 | 281 | 13.9 | 25.2 | 0.00 | 0.00 | 0.00 | 68 | |
| 20260504225611 | 53 | 253 | 15.6 | 24.3 | 0.00 | 0.00 | 0.00 | 52 | |
| 20260504225111 | 54 | 277 | 18.2 | 20.9 | 0.00 | 0.00 | 0.00 | 47 | |
| 20260504224611 | 56 | 261 | 7.8 | 11.3 | 0.00 | 0.00 | 0.00 | 45 | |
| 20260504224111 | 56 | 270 | 2.6 | 7.0 | 0.00 | 0.00 | 0.00 | 45 | |
| 20260504223611 | 56 | 275 | 0.9 | 4.3 | 0.00 | 0.00 | 0.00 | 48 | |
| 20260504223111 | 56 | 298 | 0.0 | 1.7 | 0.00 | 0.00 | 0.00 | 48 | |
| 20260504222611 | 56 | 102 | 0.0 | 0.0 | 0.00 | 0.00 | 0.00 | 48 | |
| 20260504222111 | 56 | 102 | 0.0 | 5.2 | 0.00 | 0.00 | 0.00 | 50 | |
| 20260504221611 | 55 | 307 | 3.5 | 7.0 | 0.00 | 0.00 | 0.00 | 52 | |
| 20260504221111 | 54 | 305 | 3.5 | 9.6 | 0.00 | 0.00 | 0.00 | 53 | |
| 20260504220611 | 54 | 312 | 5.2 | 11.3 | 0.00 | 0.00 | 0.00 | 55 | |
| 20260504220111 | 53 | 272 | 7.0 | 12.2 | 0.00 | 0.00 | 0.00 | 59 | |
| 20260504215611 | 52 | 284 | 7.0 | 21.7 | 0.00 | 0.00 | 0.00 | 62 | |
| 20260504215111 | 52 | 268 | 8.7 | 13.9 | 0.00 | 0.00 | 0.00 | 67 | |
| 20260504214611 | 52 | 240 | 11.3 | 15.6 | 0.00 | 0.00 | 0.00 | 62 | |
| 20260504214111 | 52 | 246 | 14.8 | 16.5 | 0.00 | 0.00 | 0.00 | 59 | |
| 20260504213611 | 52 | 246 | 13.0 | 26.1 | 0.00 | 0.00 | 0.00 | 60 | |
| 20260504213111 | 54 | 243 | 16.5 | 23.5 | 0.00 | 0.00 | 0.00 | 54 | |
| 20260504212611 | 55 | 239 | 15.6 | 17.4 | 0.00 | 0.00 | 0.00 | 47 | |
| 20260504212111 | 55 | 251 | 9.6 | 19.1 | 0.00 | 0.00 | 0.00 | 52 | |
| 20260504211611 | 55 | 247 | 16.5 | 18.2 | 0.00 | 0.00 | 0.00 | 49 | |
| 20260504211111 | 55 | 258 | 9.6 | 12.2 | 0.00 | 0.00 | 0.00 | 51 | |
| 20260504210611 | 54 | 288 | 7.0 | 12.2 | 0.00 | 0.00 | 0.00 | 56 | |
| 20260504210111 | 53 | 267 | 7.8 | 16.5 | 0.00 | 0.00 | 0.00 | 57 | |
| 20260504205611 | 53 | 257 | 7.8 | 13.0 | 0.00 | 0.00 | 0.00 | 58 | |
| 20260504205111 | 52 | 251 | 6.1 | 16.5 | 0.00 | 0.00 | 0.00 | 62 | |
| 20260504204611 | 51 | 255 | 13.0 | 19.1 | 0.00 | 0.00 | 0.00 | 62 | |
| 20260504204111 | 51 | 257 | 10.4 | 25.2 | 0.00 | 0.00 | 0.00 | 63 | |
| 20260504203611 | 52 | 250 | 21.7 | 23.5 | 0.00 | 0.00 | 0.00 | 58 | |
| 20260504203111 | 51 | 268 | 10.4 | 26.9 | 0.00 | 0.00 | 0.00 | 62 | |
| 20260504202611 | 51 | 255 | 18.2 | 23.5 | 0.00 | 0.00 | 0.00 | 62 | |
| 20260504202111 | 51 | 247 | 16.5 | 24.3 | 0.00 | 0.00 | 0.00 | 60 | |
| 20260504201611 | 52 | 282 | 10.4 | 27.8 | 0.00 | 0.00 | 0.00 | 58 | |
| 20260504201111 | 54 | 262 | 17.4 | 26.1 | 0.00 | 0.00 | 0.00 | 53 | |
| 20260504200611 | 56 | 250 | 22.6 | 28.7 | 0.00 | 0.00 | 0.00 | 44 | |
| 20260504200111 | 57 | 247 | 28.7 | 28.7 | 0.00 | 0.00 | 0.00 | 39 | |
| 20260504195611 | 60 | 258 | 15.6 | 21.7 | 0.00 | 0.00 | 0.00 | 31 | |
| 20260504195111 | 61 | 257 | 7.0 | 12.2 | 0.00 | 0.00 | 0.00 | 28 | |
| 20260504194611 | 61 | 230 | 8.7 | 14.8 | 0.00 | 0.00 | 0.00 | 29 | |
| 20260504194111 | 62 | 275 | 6.1 | 15.6 | 0.00 | 0.00 | 0.00 | 30 | |
| 20260504193611 | 62 | 251 | 11.3 | 17.4 | 0.00 | 0.00 | 0.00 | 31 | |
| 20260504193111 | 62 | 236 | 12.2 | 14.8 | 0.00 | 0.00 | 0.00 | 29 | |
| 20260504192611 | 62 | 265 | 11.3 | 18.2 | 0.00 | 0.00 | 0.00 | 29 | |
| 20260504192111 | 61 | 250 | 9.6 | 20.9 | 0.00 | 0.00 | 0.00 | 33 | |
| 20260504191611 | 60 | 244 | 16.5 | 19.1 | 0.00 | 0.00 | 0.00 | 33 | |
| 20260504191111 | 58 | 258 | 12.2 | 16.5 | 0.00 | 0.00 | 0.00 | 36 | |
| 20260504190611 | 57 | 262 | 7.8 | 11.3 | 0.00 | 0.00 | 0.00 | 38 | |
| 20260504190111 | 57 | 255 | 5.2 | 15.6 | 0.00 | 0.00 | 0.00 | 40 | |
| 20260504185611 | 57 | 257 | 12.2 | 22.6 | 0.00 | 0.00 | 0.00 | 43 | |
| 20260504185111 | 56 | 258 | 13.0 | 18.2 | 0.00 | 0.00 | 0.00 | 45 | |
| 20260504184611 | 54 | 240 | 14.8 | 20.0 | 0.00 | 0.00 | 0.00 | 49 | |
| 20260504184111 | 52 | 230 | 12.2 | 18.2 | 0.00 | 0.00 | 0.00 | 60 | |
| 20260504183611 | 50 | 244 | 14.8 | 21.7 | 0.00 | 0.00 | 0.00 | 63 | |
| 20260504183111 | 50 | 246 | 16.5 | 23.5 | 0.00 | 0.00 | 0.00 | 63 | |
| 20260504182611 | 50 | 264 | 11.3 | 25.2 | 0.00 | 0.00 | 0.00 | 60 | |
| 20260504182111 | 51 | 226 | 24.3 | 29.5 | 0.00 | 0.00 | 0.00 | 56 | |
| 20260504181611 | 52 | 250 | 20.0 | 26.9 | 0.00 | 0.00 | 0.00 | 51 | |
| 20260504181111 | 54 | 226 | 16.5 | 25.2 | 0.00 | 0.00 | 0.00 | 45 | |
| 20260504180611 | 57 | 225 | 19.1 | 20.9 | 0.00 | 0.00 | 0.00 | 37 | |
| 20260504180111 | 58 | 272 | 7.0 | 15.6 | 0.00 | 0.00 | 0.00 | 35 | |
| 20260504175611 | 58 | 246 | 3.5 | 7.0 | 0.00 | 0.00 | 0.00 | 35 | |
| 20260504175111 | 58 | 258 | 3.5 | 7.0 | 0.00 | 0.00 | 0.00 | 34 | |
| 20260504174611 | 58 | 298 | 5.2 | 8.7 | 0.00 | 0.00 | 0.00 | 36 | |
| 20260504174111 | 57 | 288 | 7.8 | 9.6 | 0.00 | 0.00 | 0.00 | 36 | |
| 20260504173611 | 57 | 251 | 3.5 | 11.3 | 0.00 | 0.00 | 0.00 | 35 | |
| 20260504173111 | 57 | 243 | 0.0 | 6.1 | 0.00 | 0.00 | 0.00 | 36 | |
| 20260504172611 | 57 | 274 | 3.5 | 12.2 | 0.00 | 0.00 | 0.00 | 36 | |
| 20260504172111 | 57 | 246 | 4.3 | 15.6 | 0.00 | 0.00 | 0.00 | 36 | |
| 20260504171611 | 57 | 260 | 10.4 | 13.0 | 0.00 | 0.00 | 0.00 | 37 | |
| 20260504171111 | 57 | 261 | 6.1 | 14.8 | 0.00 | 0.00 | 0.00 | 36 | |
| 20260504170611 | 57 | 250 | 5.2 | 18.2 | 0.00 | 0.00 | 0.00 | 36 | |
| 20260504170111 | 57 | 255 | 14.8 | 18.2 | 0.00 | 0.00 | 0.00 | 36 | |
| 20260504160111 | 56 | 344 | 0.9 | 6.1 | 0.00 | 0.00 | 0.00 | 40 | |
| 20260504151111 | 52 | 331 | 0.9 | 7.8 | 0.00 | 0.00 | 0.00 | 50 | |
| 20260504150612 | 51 | 312 | 3.5 | 7.0 | 0.00 | 0.00 | 0.00 | 52 | |
| 20260504150111 | 50 | 303 | 2.6 | 7.0 | 0.00 | 0.00 | 0.00 | 55 |